Inquirer Daily News

Weather

Get conditions and forecasts for any City, State, ZIP code or Country:  
Trenton, NJ
on Thursday, February 28, 2013

Thursday
Previous Day Next Day
Daily Summary
 ActualAverageRecord
Temperature
Mean Temperature °F 37°F  
Max Temperature 47°F 46°F 69°F (1903)
Min Temperature 35°F 28°F 1°F (1934)
Degree Days
Heating Degree Days 24 28  
Month to date heating degree days 893 867  
Since 1 July heating degree days 3601 3814  
Cooling Degree Days 0 0  
Month to date cooling degree days 0 0  
Year to date cooling degree days 0 0  
Moisture
Dew Point 30°F   
Average Humidity 61    
Maximum Humidity 76    
Minimum Humidity 45    
Precipitation
Precipitation T in 0.10 in 1.70 in (1902)
Month to date precipitation 1.80 2.31  
Year to date precipitation 4.62 5.47  
Wind
Wind Speed 7 mph   
Max Wind Speed 14 mph   
Max Gust Speed 18 mph   
Visibility 10 miles   
Events Rain   

Key: T is trace of precipitation, MM is missing value
Source: NWS Daily Summary
Time(EST)TemperatureDew PointHumidity Pressure Visibility Wind DirectionWind SpeedGust SpeedPrecipitationEvents Conditions
1:53 AM 43.0°F 35.1°F 74% 29.61 in 10.0 miles WSW 3.5 mph - N/A   Overcast
2:53 AM 43.0°F 34.0°F 71% 29.60 in 10.0 miles West 3.5 mph - N/A   Overcast
4:53 AM 43.0°F 33.1°F 68% 29.60 in 10.0 miles West 3.5 mph - 0.00 in   Overcast
5:53 AM 42.1°F 33.1°F 70% 29.60 in 10.0 miles WNW 4.6 mph - N/A   Overcast
7:53 AM 42.1°F 33.1°F 70% 29.62 in 10.0 miles West 5.8 mph - N/A   Mostly Cloudy
8:53 AM 42.1°F 33.1°F 70% 29.62 in 10.0 miles NW 4.6 mph - N/A   Overcast
9:53 AM 44.1°F 34.0°F 68% 29.61 in 10.0 miles WNW 6.9 mph - N/A   Overcast
10:53 AM 45.0°F 30.9°F 58% 29.59 in 10.0 miles NW 9.2 mph - N/A   Scattered Clouds
11:53 AM 46.0°F 30.0°F 54% 29.58 in 10.0 miles NW 8.1 mph - N/A   Overcast
12:53 PM 45.0°F 30.0°F 56% 29.56 in 10.0 miles West 9.2 mph - 0.00 in Rain Light Rain
1:53 PM 45.0°F 28.9°F 53% 29.57 in 10.0 miles NW 6.9 mph - 0.00 in   Overcast
2:53 PM 44.1°F 27.0°F 51% 29.57 in 10.0 miles NNW 10.4 mph - N/A   Overcast
4:53 PM 44.1°F 24.1°F 45% 29.56 in 10.0 miles NNW 8.1 mph - N/A   Scattered Clouds
5:53 PM 43.0°F 26.1°F 51% 29.58 in 10.0 miles NW 10.4 mph - N/A   Overcast
6:53 PM 42.1°F 27.0°F 55% 29.60 in 10.0 miles WNW 9.2 mph - N/A   Overcast
7:53 PM 41.0°F 28.0°F 60% 29.62 in 10.0 miles WNW 9.2 mph - N/A   Overcast
8:53 PM 39.0°F 30.0°F 70% 29.62 in 10.0 miles WNW 8.1 mph - N/A   Overcast
9:53 PM 37.9°F 30.0°F 73% 29.63 in 10.0 miles NW 10.4 mph 17.3 mph N/A   Mostly Cloudy
10:53 PM 37.0°F 30.0°F 76% 29.63 in 10.0 miles NW 8.1 mph - N/A   Clear
11:53 PM 36.0°F 30.0°F 79% 29.62 in 10.0 miles NW 6.9 mph - N/A   Clear
Astronomy
Sunrise:06:33 AM (EST) Moon Rise:09:14 PM (EST)
Sunset:05:50 PM (EST) Moon Set:07:41 AM (EST)
Moon Phase
Feb. 28 Mar. 04 Mar. 11 Mar. 19 Mar. 27

Copyright © 2014 The Weather Underground, Inc.